Station Historical Data
Daily Summary for August 22, 2017 Units:  Metric    English   Both
« Previous Day
Next Day »
Daily Weekly Monthly Yearly Custom
  High: Low: Average:
Temperature: 34.7 °C 21.6 °C 26.9 °C
Dew Point: 23.7 °C 18.7 °C 21.2 °C
Humidity: 92% 42% 73%
Wind Speed: 1.6km/h 0km/h 0km/h
Wind Gust: 4.8km/h - -
Wind- - SW
Pressure: 1021.2 hPa 1014.4 hPa -
Precipitation: 0 mm    
Historical Graphs
 
 
Tabular Data for August 22, 2017
Time Temperature Dew Point Pressure Wind Wind Speed Wind Gust Humidity Rainfall Rate (Hourly) solar Conditions
00:00 24.1 °C 21.4 °C 1021.2 hPa Calm     85% 0 mm WeatherDisplay:10.37 W/m2 CLR
00:05 24.1 °C 21.4 °C 1021.2 hPa Calm     85% 0 mm WeatherDisplay:10.37 W/m2 CLR
00:10 24 °C 21.3 °C 1021.2 hPa Calm     85% 0 mm WeatherDisplay:10.37 W/m2 CLR
00:15 23.9 °C 21.3 °C 1021.2 hPa Calm     85% 0 mm WeatherDisplay:10.37 W/m2 CLR
00:20 23.9 °C 21.3 °C 1021.2 hPa Calm     85% 0 mm WeatherDisplay:10.37 W/m2 CLR
00:25 23.8 °C 21.2 °C 1021.2 hPa Calm     85% 0 mm WeatherDisplay:10.37 W/m2 CLR
00:30 23.8 °C 21.3 °C 1021.2 hPa Calm     86% 0 mm WeatherDisplay:10.37 W/m2 CLR
00:35 23.7 °C 21.2 °C 1021.2 hPa Calm     86% 0 mm WeatherDisplay:10.37 W/m2 CLR
00:40 23.7 °C 21.2 °C 1021.2 hPa Calm     86% 0 mm WeatherDisplay:10.37 W/m2 CLR
00:45 23.6 °C 21.3 °C 1021.2 hPa Calm     87% 0 mm WeatherDisplay:10.37 W/m2 CLR
00:50 23.6 °C 21.3 °C 1021.2 hPa Calm     87% 0 mm WeatherDisplay:10.37 W/m2 CLR
00:55 23.6 °C 21.3 °C 1020.9 hPa Calm     87% 0 mm WeatherDisplay:10.37 W/m2 CLR
01:00 23.5 °C 21.2 °C 1020.9 hPa Calm     87% 0 mm WeatherDisplay:10.37 W/m2 CLR
01:05 23.5 °C 21.2 °C 1020.9 hPa Calm     87% 0 mm WeatherDisplay:10.37 W/m2 CLR
01:10 23.4 °C 21.2 °C 1020.9 hPa Calm     87% 0 mm WeatherDisplay:10.37 W/m2 CLR
01:15 23.4 °C 21.3 °C 1020.9 hPa Calm     88% 0 mm WeatherDisplay:10.37 W/m2 CLR
01:20 23.3 °C 21.2 °C 1020.9 hPa Calm     88% 0 mm WeatherDisplay:10.37 W/m2 CLR
01:25 23.3 °C 21.2 °C 1020.9 hPa Calm     88% 0 mm WeatherDisplay:10.37 W/m2 CLR
01:30 23.3 °C 21.2 °C 1020.9 hPa Calm     88% 0 mm WeatherDisplay:10.37 W/m2 CLR
01:35 23.3 °C 21.2 °C 1020.9 hPa Calm     88% 0 mm WeatherDisplay:10.37 W/m2 CLR
01:40 23.4 °C 21.3 °C 1020.9 hPa Calm     88% 0 mm WeatherDisplay:10.37 W/m2 CLR
01:45 23.4 °C 21.3 °C 1020.5 hPa Calm     88% 0 mm WeatherDisplay:10.37 W/m2 CLR
01:50 23.4 °C 21.3 °C 1020.5 hPa Calm     88% 0 mm WeatherDisplay:10.37 W/m2 CLR
01:55 23.4 °C 21.3 °C 1020.5 hPa Calm     88% 0 mm WeatherDisplay:10.37 W/m2 CLR
02:00 23.4 °C 21.3 °C 1020.2 hPa Calm     88% 0 mm WeatherDisplay:10.37 W/m2 CLR
02:05 23.4 °C 21.3 °C 1020.2 hPa Calm     88% 0 mm WeatherDisplay:10.37 W/m2 CLR
02:10 23.4 °C 21.3 °C 1020.2 hPa Calm     88% 0 mm WeatherDisplay:10.37 W/m2 CLR
02:15 23.4 °C 21.3 °C 1020.2 hPa Calm     88% 0 mm WeatherDisplay:10.37 W/m2 CLR
02:20 23.5 °C 21.2 °C 1020.2 hPa Calm     87% 0 mm WeatherDisplay:10.37 W/m2 FEW
02:25 23.5 °C 21.2 °C 1020.2 hPa Calm     87% 0 mm WeatherDisplay:10.37 W/m2 FEW
02:30 23.6 °C 21.3 °C 1019.9 hPa Calm     87% 0 mm WeatherDisplay:10.37 W/m2 FEW
02:35 23.6 °C 21.2 °C 1020.2 hPa Calm     86% 0 mm WeatherDisplay:10.37 W/m2 FEW
02:40 23.7 °C 21.2 °C 1019.9 hPa Calm     86% 0 mm WeatherDisplay:10.37 W/m2 FEW
02:45 23.7 °C 21.2 °C 1019.9 hPa Calm     86% 0 mm WeatherDisplay:10.37 W/m2 FEW
02:50 23.6 °C 21.1 °C 1019.9 hPa Calm     86% 0 mm WeatherDisplay:10.37 W/m2 FEW
02:55 23.6 °C 21.1 °C 1019.9 hPa Calm     86% 0 mm WeatherDisplay:10.37 W/m2 FEW
03:00 23.6 °C 21.1 °C 1019.9 hPa Calm     86% 0 mm WeatherDisplay:10.37 W/m2 FEW
03:05 23.6 °C 21.1 °C 1019.9 hPa Calm     86% 0 mm WeatherDisplay:10.37 W/m2 FEW
03:10 23.5 °C 21.2 °C 1019.9 hPa Calm     87% 0 mm WeatherDisplay:10.37 W/m2 FEW
03:15 23.5 °C 21 °C 1019.5 hPa Calm     86% 0 mm WeatherDisplay:10.37 W/m2 FEW
03:20 23.5 °C 21.2 °C 1019.5 hPa Calm     87% 0 mm WeatherDisplay:10.37 W/m2 CLR
03:30 23.4 °C 21.2 °C 1019.5 hPa Calm     87% 0 mm WeatherDisplay:10.37 W/m2 CLR
03:35 23.4 °C 21.1 °C 1019.5 hPa Calm     87% 0 mm WeatherDisplay:10.37 W/m2 CLR
03:40 23.4 °C 21.1 °C 1019.5 hPa Calm     87% 0 mm WeatherDisplay:10.37 W/m2 CLR
03:45 23.3 °C 21.1 °C 1019.5 hPa Calm     87% 0 mm WeatherDisplay:10.37 W/m2 CLR
03:55 23.3 °C 21 °C 1019.2 hPa Calm     87% 0 mm WeatherDisplay:10.37 W/m2 CLR
04:00 23.2 °C 20.9 °C 1019.2 hPa Calm     87% 0 mm WeatherDisplay:10.37 W/m2 CLR
04:05 23.2 °C 21.1 °C 1019.2 hPa Calm     88% 0 mm WeatherDisplay:10.37 W/m2 CLR
04:10 23.1 °C 21 °C 1019.2 hPa Calm     88% 0 mm WeatherDisplay:10.37 W/m2 CLR
04:15 23.1 °C 20.9 °C 1019.2 hPa Calm     88% 0 mm WeatherDisplay:10.37 W/m2 CLR
04:20 23 °C 20.9 °C 1019.2 hPa Calm     88% 0 mm WeatherDisplay:10.37 W/m2 CLR
04:25 22.9 °C 20.8 °C 1019.2 hPa Calm     88% 0 mm WeatherDisplay:10.37 W/m2 CLR
04:30 22.9 °C 20.8 °C 1018.8 hPa Calm     88% 0 mm WeatherDisplay:10.37 W/m2 CLR
04:35 22.8 °C 20.9 °C 1018.8 hPa Calm     89% 0 mm WeatherDisplay:10.37 W/m2 CLR
04:40 22.8 °C 20.9 °C 1018.8 hPa Calm     89% 0 mm WeatherDisplay:10.37 W/m2 CLR
04:45 22.7 °C 20.8 °C 1018.8 hPa Calm     89% 0 mm WeatherDisplay:10.37 W/m2 CLR
04:50 22.7 °C 20.8 °C 1018.8 hPa Calm     89% 0 mm WeatherDisplay:10.37 W/m2 CLR
04:55 22.7 °C 20.8 °C 1018.8 hPa Calm     89% 0 mm WeatherDisplay:10.37 W/m2 CLR
05:00 22.6 °C 20.7 °C 1018.8 hPa Calm     89% 0 mm WeatherDisplay:10.37 W/m2 CLR
05:05 22.6 °C 20.7 °C 1018.5 hPa Calm     89% 0 mm WeatherDisplay:10.37 W/m2 CLR
05:10 22.5 °C 20.6 °C 1018.5 hPa Calm     89% 0 mm WeatherDisplay:10.37 W/m2 CLR
05:15 22.5 °C 20.8 °C 1018.5 hPa Calm     90% 0 mm WeatherDisplay:10.37 W/m2 CLR
05:20 22.4 °C 20.7 °C 1018.5 hPa Calm     90% 0 mm WeatherDisplay:10.37 W/m2 CLR
05:30 22.3 °C 20.6 °C 1018.5 hPa Calm     90% 0 mm WeatherDisplay:10.37 W/m2 CLR
05:35 22.3 °C 20.6 °C 1018.5 hPa Calm     90% 0 mm WeatherDisplay:10.37 W/m2 CLR
05:40 22.2 °C 20.5 °C 1018.5 hPa Calm     90% 0 mm WeatherDisplay:10.37 W/m2 CLR
05:45 22.2 °C 20.4 °C 1018.5 hPa Calm     90% 0 mm WeatherDisplay:10.37 W/m2 CLR
05:50 22.2 °C 20.4 °C 1018.5 hPa Calm     90% 0 mm WeatherDisplay:10.37 W/m2 CLR
05:55 22.1 °C 20.4 °C 1018.5 hPa Calm     90% 0 mm WeatherDisplay:10.37 W/m2 CLR
06:00 22.1 °C 20.3 °C 1018.5 hPa Calm     90% 0 mm WeatherDisplay:10.37 W/m2 CLR
06:05 22 °C 20.4 °C 1018.5 hPa Calm     91% 0 mm WeatherDisplay:10.37 W/m2 CLR
06:10 21.9 °C 20.4 °C 1018.8 hPa Calm     91% 0 mm WeatherDisplay:10.37 W/m2 CLR
06:15 21.9 °C 20.4 °C 1018.8 hPa Calm     91% 0 mm WeatherDisplay:10.37 W/m2 CLR
06:20 21.9 °C 20.3 °C 1018.8 hPa Calm     91% 0 mm WeatherDisplay:10.37 W/m2 CLR
06:25 21.8 °C 20.3 °C 1018.8 hPa Calm     91% 0 mm WeatherDisplay:10.37 W/m2 CLR
06:30 21.8 °C 20.3 °C 1018.8 hPa Calm     91% 0 mm WeatherDisplay:10.37 W/m2 CLR
06:35 21.8 °C 20.3 °C 1018.8 hPa Calm     91% 0 mm WeatherDisplay:10.37 W/m2 CLR
06:40 21.8 °C 20.3 °C 1018.8 hPa Calm     91% 0 mm WeatherDisplay:10.37 W/m2 CLR
06:45 21.8 °C 20.3 °C 1018.8 hPa Calm     91% 0 mm WeatherDisplay:10.37 W/m2 CLR
06:50 21.8 °C 20.3 °C 1018.8 hPa Calm     91% 0 mm WeatherDisplay:10.37 W/m2 CLR
06:55 21.8 °C 20.2 °C 1018.8 hPa Calm     91% 0 mm WeatherDisplay:10.37 W/m2 CLR
07:00 21.7 °C 20.2 °C 1019.2 hPa Calm     91% 0 mm WeatherDisplay:10.37 W/m2 CLR
07:05 21.7 °C 20.2 °C 1019.2 hPa Calm     91% 0 mm WeatherDisplay:10.37 W/m2 CLR
07:10 21.7 °C 20.2 °C 1019.2 hPa Calm     91% 0 mm WeatherDisplay:10.37 W/m2 CLR
07:15 21.7 °C 20.1 °C 1019.2 hPa Calm     91% 0 mm WeatherDisplay:10.37 W/m2 CLR
07:20 21.6 °C 20.1 °C 1019.2 hPa Calm     91% 0 mm WeatherDisplay:10.37 W/m2 FEW
07:25 21.6 °C 20.3 °C 1019.2 hPa Calm     92% 0 mm WeatherDisplay:10.37 W/m2 FEW
07:30 21.6 °C 20.3 °C 1019.2 hPa Calm     92% 0 mm WeatherDisplay:10.37 W/m2 FEW
07:35 21.7 °C 20.3 °C 1019.2 hPa Calm     92% 0 mm WeatherDisplay:10.37 W/m2 FEW
07:40 21.7 °C 20.4 °C 1019.2 hPa Calm     92% 0 mm WeatherDisplay:10.37 W/m2 FEW
07:45 21.8 °C 20.4 °C 1019.2 hPa Calm     92% 0 mm WeatherDisplay:10.37 W/m2 FEW
07:55 21.9 °C 20.6 °C 1019.2 hPa Calm     92% 0 mm WeatherDisplay:10.37 W/m2 FEW
08:00 22 °C 20.7 °C 1019.2 hPa Calm     92% 0 mm WeatherDisplay:10.37 W/m2 FEW
08:05 22.1 °C 20.7 °C 1019.2 hPa Calm     92% 0 mm WeatherDisplay:10.37 W/m2 FEW
08:10 22.2 °C 20.8 °C 1019.5 hPa Calm     92% 0 mm WeatherDisplay:10.37 W/m2 FEW
08:15 22.3 °C 20.9 °C 1019.5 hPa Calm     92% 0 mm WeatherDisplay:10.37 W/m2 FEW
08:20 22.4 °C 21.1 °C 1019.2 hPa Calm     92% 0 mm WeatherDisplay:10.37 W/m2 CLR
08:25 22.6 °C 21.2 °C 1019.5 hPa Calm     92% 0 mm WeatherDisplay:10.37 W/m2 CLR
08:30 22.8 °C 21.4 °C 1019.5 hPa Calm     92% 0 mm WeatherDisplay:10.37 W/m2 CLR
08:35 23 °C 21.4 °C 1019.5 hPa Calm     91% 0 mm WeatherDisplay:10.37 W/m2 CLR
08:40 23.3 °C 21.7 °C 1019.9 hPa Calm     91% 0 mm WeatherDisplay:10.37 W/m2 CLR
08:45 23.5 °C 21.9 °C 1019.9 hPa Calm     91% 0 mm WeatherDisplay:10.37 W/m2 CLR
08:50 23.7 °C 21.9 °C 1019.9 hPa Calm     90% 0 mm WeatherDisplay:10.37 W/m2 CLR
08:55 23.9 °C 21.8 °C 1019.9 hPa Calm   1.6 km/h 88% 0 mm WeatherDisplay:10.37 W/m2 CLR
09:00 24.2 °C 22.1 °C 1019.9 hPa Calm   1.6 km/h 88% 0 mm WeatherDisplay:10.37 W/m2 CLR
09:05 24.4 °C 22.1 °C 1019.9 hPa Calm     87% 0 mm WeatherDisplay:10.37 W/m2 CLR
09:10 24.7 °C 22.2 °C 1019.9 hPa Calm     86% 0 mm WeatherDisplay:10.37 W/m2 CLR
09:15 24.9 °C 22.4 °C 1019.9 hPa Calm     86% 0 mm WeatherDisplay:10.37 W/m2 CLR
09:20 25.2 °C 22.3 °C 1019.9 hPa Calm   1.6 km/h 84% 0 mm WeatherDisplay:10.37 W/m2 CLR
09:25 25.5 °C 22.6 °C 1019.9 hPa Calm     84% 0 mm WeatherDisplay:10.37 W/m2 CLR
09:30 25.7 °C 22.6 °C 1019.9 hPa Calm     83% 0 mm WeatherDisplay:10.37 W/m2 CLR
09:35 25.9 °C 22.8 °C 1019.5 hPa Calm   1.6 km/h 83% 0 mm WeatherDisplay:10.37 W/m2 CLR
09:40 26.1 °C 22.7 °C 1019.5 hPa Calm     82% 0 mm WeatherDisplay:10.37 W/m2 CLR
09:45 26.3 °C 22.9 °C 1019.5 hPa Calm   1.6 km/h 82% 0 mm WeatherDisplay:10.37 W/m2 CLR
09:50 26.5 °C 22.8 °C 1019.5 hPa West 1.6 km/h 3.2 km/h 80% 0 mm WeatherDisplay:10.37 W/m2 CLR
09:55 26.8 °C 23.1 °C 1019.5 hPa Calm   1.6 km/h 80% 0 mm WeatherDisplay:10.37 W/m2 CLR
10:00 27.1 °C 22.9 °C 1019.5 hPa Calm   1.6 km/h 78% 0 mm WeatherDisplay:10.37 W/m2 CLR
10:05 27.5 °C 23.1 °C 1019.5 hPa Calm   3.2 km/h 77% 0 mm WeatherDisplay:10.37 W/m2 CLR
10:10 27.8 °C 23.4 °C 1019.9 hPa Calm   1.6 km/h 77% 0 mm WeatherDisplay:10.37 W/m2 CLR
10:15 28.2 °C 23.6 °C 1019.5 hPa SW 1.6 km/h 3.2 km/h 76% 0 mm WeatherDisplay:10.37 W/m2 CLR
10:20 28.3 °C 23.4 °C 1019.9 hPa Calm   1.6 km/h 75% 0 mm WeatherDisplay:10.37 W/m2 FEW
10:25 28.4 °C 23.6 °C 1019.9 hPa Calm   1.6 km/h 75% 0 mm WeatherDisplay:10.37 W/m2 FEW
10:30 28.6 °C 23.7 °C 1019.9 hPa Calm   1.6 km/h 75% 0 mm WeatherDisplay:10.37 W/m2 FEW
10:35 28.6 °C 23.3 °C 1019.9 hPa Calm   1.6 km/h 73% 0 mm WeatherDisplay:10.37 W/m2 FEW
10:40 28.6 °C 23 °C 1019.9 hPa SW 1.6 km/h 3.2 km/h 72% 0 mm WeatherDisplay:10.37 W/m2 FEW
10:45 28.6 °C 23.3 °C 1019.9 hPa Calm     73% 0 mm WeatherDisplay:10.37 W/m2 FEW
10:50 28.8 °C 23.4 °C 1019.9 hPa Calm   4.8 km/h 73% 0 mm WeatherDisplay:10.37 W/m2 FEW
10:55 28.8 °C 22.8 °C 1019.9 hPa SW 1.6 km/h 3.2 km/h 70% 0 mm WeatherDisplay:10.37 W/m2 FEW
11:00 28.7 °C 22.9 °C 1019.9 hPa SW 1.6 km/h 3.2 km/h 71% 0 mm WeatherDisplay:10.37 W/m2 FEW
11:05 28.8 °C 23.5 °C 1019.9 hPa Calm   3.2 km/h 73% 0 mm WeatherDisplay:10.37 W/m2 FEW
11:10 28.9 °C 23.4 °C 1019.9 hPa Calm   3.2 km/h 72% 0 mm WeatherDisplay:10.37 W/m2 FEW
11:15 29.1 °C 22.8 °C 1019.9 hPa SSW 1.6 km/h 4.8 km/h 69% 0 mm WeatherDisplay:10.37 W/m2 FEW
11:20 28.8 °C 22.8 °C 1019.9 hPa Calm   1.6 km/h 70% 0 mm WeatherDisplay:10.37 W/m2 SCT
11:25 28.7 °C 22.4 °C 1019.5 hPa Calm   1.6 km/h 69% 0 mm WeatherDisplay:10.37 W/m2 SCT
11:30 28.6 °C 23.1 °C 1019.5 hPa Calm     72% 0 mm WeatherDisplay:10.37 W/m2 SCT
11:40 28.8 °C 22.1 °C 1019.5 hPa Calm   1.6 km/h 67% 0 mm WeatherDisplay:10.37 W/m2 SCT
11:45 29.2 °C 22.9 °C 1019.5 hPa Calm   3.2 km/h 69% 0 mm WeatherDisplay:10.37 W/m2 SCT
11:50 29.6 °C 22.3 °C 1019.5 hPa Calm   1.6 km/h 65% 0 mm WeatherDisplay:10.37 W/m2 SCT
11:55 29.7 °C 22.2 °C 1019.5 hPa Calm   1.6 km/h 64% 0 mm WeatherDisplay:10.37 W/m2 SCT
12:00 29.6 °C 22.8 °C 1019.5 hPa Calm     67% 0 mm WeatherDisplay:10.37 W/m2 SCT
12:05 29.6 °C 22.3 °C 1019.5 hPa Calm   1.6 km/h 65% 0 mm WeatherDisplay:10.37 W/m2 SCT
12:10 30 °C 21.9 °C 1019.5 hPa Calm   3.2 km/h 62% 0 mm WeatherDisplay:10.37 W/m2 SCT
12:15 30.3 °C 21.7 °C 1019.5 hPa WNW 1.6 km/h 3.2 km/h 60% 0 mm WeatherDisplay:10.37 W/m2 SCT
12:20 30.8 °C 22.4 °C 1019.2 hPa Calm   1.6 km/h 61% 0 mm WeatherDisplay:10.37 W/m2 SCT
12:25 31 °C 22.6 °C 1019.2 hPa Calm   1.6 km/h 61% 0 mm WeatherDisplay:10.37 W/m2 SCT
12:30 31.2 °C 21.7 °C 1019.2 hPa Calm   4.8 km/h 57% 0 mm WeatherDisplay:10.37 W/m2 SCT
12:40 31.7 °C 22.4 °C 1019.2 hPa Calm   3.2 km/h 58% 0 mm WeatherDisplay:10.37 W/m2 SCT
12:45 31.8 °C 21.3 °C 1019.2 hPa South 1.6 km/h 4.8 km/h 54% 0 mm WeatherDisplay:10.37 W/m2 SCT
12:50 32.1 °C 21.9 °C 1019.2 hPa Calm     55% 0 mm WeatherDisplay:10.37 W/m2 SCT
12:55 32.4 °C 21.7 °C 1019.2 hPa Calm   1.6 km/h 53% 0 mm WeatherDisplay:10.37 W/m2 SCT
13:00 32.8 °C 21.7 °C 1018.8 hPa Calm   1.6 km/h 52% 0 mm WeatherDisplay:10.37 W/m2 SCT
13:05 32.9 °C 21.4 °C 1018.8 hPa Calm   3.2 km/h 51% 0 mm WeatherDisplay:10.37 W/m2 SCT
13:10 33.2 °C 22.3 °C 1018.8 hPa Calm   1.6 km/h 53% 0 mm WeatherDisplay:10.37 W/m2 SCT
13:15 33.3 °C 21.5 °C 1018.8 hPa Calm   1.6 km/h 50% 0 mm WeatherDisplay:10.37 W/m2 SCT
13:20 33.8 °C 21.6 °C 1018.8 hPa Calm   1.6 km/h 49% 0 mm WeatherDisplay:10.37 W/m2 BKN
13:25 34.1 °C 20.8 °C 1018.5 hPa West 1.6 km/h 3.2 km/h 46% 0 mm WeatherDisplay:10.37 W/m2 BKN
13:30 34.1 °C 21.2 °C 1018.5 hPa Calm   3.2 km/h 47% 0 mm WeatherDisplay:10.37 W/m2 BKN
13:40 34.3 °C 21.4 °C 1018.5 hPa Calm   1.6 km/h 47% 0 mm WeatherDisplay:10.37 W/m2 BKN
13:45 34.6 °C 21.2 °C 1018.5 hPa Calm   1.6 km/h 46% 0 mm WeatherDisplay:10.37 W/m2 BKN
13:50 34.5 °C 19.7 °C 1018.5 hPa Calm   3.2 km/h 42% 0 mm WeatherDisplay:10.37 W/m2 BKN
13:55 34.1 °C 19.7 °C 1018.2 hPa Calm   1.6 km/h 43% 0 mm WeatherDisplay:10.37 W/m2 BKN
14:00 34.3 °C 21 °C 1018.2 hPa Calm   1.6 km/h 46% 0 mm WeatherDisplay:10.37 W/m2 BKN
14:05 34.7 °C 21.1 °C 1018.2 hPa Calm   1.6 km/h 45% 0 mm WeatherDisplay:10.37 W/m2 BKN
14:10 34.4 °C 20.4 °C 1018.2 hPa Calm     44% 0 mm WeatherDisplay:10.37 W/m2 BKN
14:15 34.3 °C 19.9 °C 1017.8 hPa Calm   1.6 km/h 43% 0 mm WeatherDisplay:10.37 W/m2 BKN
14:20 34.2 °C 21.2 °C 1017.8 hPa Calm   1.6 km/h 47% 0 mm WeatherDisplay:10.37 W/m2 SCT
14:30 33.8 °C 20.6 °C 1017.5 hPa Calm   1.6 km/h 46% 0 mm WeatherDisplay:10.37 W/m2 SCT
14:40 33.6 °C 19.6 °C 1017.5 hPa Calm   1.6 km/h 44% 0 mm WeatherDisplay:10.37 W/m2 SCT
14:45 33.3 °C 19.8 °C 1017.2 hPa Calm   3.2 km/h 45% 0 mm WeatherDisplay:10.37 W/m2 SCT
14:50 33 °C 19.8 °C 1017.2 hPa Calm   3.2 km/h 46% 0 mm WeatherDisplay:10.37 W/m2 SCT
14:55 32.9 °C 20.1 °C 1017.2 hPa Calm   1.6 km/h 47% 0 mm WeatherDisplay:10.37 W/m2 SCT
15:00 32.7 °C 20.2 °C 1017.2 hPa Calm     48% 0 mm WeatherDisplay:10.37 W/m2 SCT
15:05 32.4 °C 20.7 °C 1017.2 hPa Calm     50% 0 mm WeatherDisplay:10.37 W/m2 SCT
15:10 32.2 °C 20.5 °C 1017.2 hPa Calm     50% 0 mm WeatherDisplay:10.37 W/m2 SCT
15:15 32.2 °C 19.8 °C 1016.8 hPa Calm   1.6 km/h 48% 0 mm WeatherDisplay:10.37 W/m2 SCT
15:20 32.2 °C 21.1 °C 1016.8 hPa Calm   3.2 km/h 52% 0 mm WeatherDisplay:10.37 W/m2 BKN
15:25 32.4 °C 20.9 °C 1016.5 hPa Calm     51% 0 mm WeatherDisplay:10.37 W/m2 BKN
15:30 32.6 °C 20.4 °C 1016.5 hPa Calm   1.6 km/h 49% 0 mm WeatherDisplay:10.37 W/m2 BKN
15:40 32.2 °C 19.1 °C 1016.5 hPa Calm   3.2 km/h 46% 0 mm WeatherDisplay:10.37 W/m2 BKN
15:45 32.2 °C 18.7 °C 1016.5 hPa Calm   1.6 km/h 45% 0 mm WeatherDisplay:10.37 W/m2 BKN
15:50 32.3 °C 19.9 °C 1016.1 hPa Calm   1.6 km/h 48% 0 mm WeatherDisplay:10.37 W/m2 BKN
15:55 32.4 °C 19.9 °C 1016.1 hPa Calm   1.6 km/h 48% 0 mm WeatherDisplay:10.37 W/m2 BKN
16:00 32.5 °C 19.7 °C 1016.1 hPa Calm   1.6 km/h 47% 0 mm WeatherDisplay:10.37 W/m2 BKN
16:10 31.8 °C 19.5 °C 1016.1 hPa Calm   1.6 km/h 48% 0 mm WeatherDisplay:10.37 W/m2 BKN
16:20 32.1 °C 19.3 °C 1015.8 hPa Calm   1.6 km/h 47% 0 mm WeatherDisplay:10.37 W/m2 SCT
16:25 32.2 °C 19.4 °C 1015.8 hPa Calm   1.6 km/h 47% 0 mm WeatherDisplay:10.37 W/m2 SCT
16:30 32.1 °C 19.7 °C 1015.8 hPa Calm   1.6 km/h 48% 0 mm WeatherDisplay:10.37 W/m2 SCT
16:40 32 °C 20.9 °C 1015.5 hPa Calm   1.6 km/h 52% 0 mm WeatherDisplay:10.37 W/m2 SCT
16:45 32 °C 20.3 °C 1015.5 hPa Calm     50% 0 mm WeatherDisplay:10.37 W/m2 SCT
16:50 31.9 °C 19.6 °C 1015.5 hPa Calm   1.6 km/h 48% 0 mm WeatherDisplay:10.37 W/m2 SCT
16:55 31.9 °C 19.8 °C 1015.5 hPa Calm     49% 0 mm WeatherDisplay:10.37 W/m2 SCT
17:00 31.7 °C 20.1 °C 1015.5 hPa Calm   3.2 km/h 50% 0 mm WeatherDisplay:10.37 W/m2 SCT
17:10 31.6 °C 20.8 °C 1015.5 hPa Calm   1.6 km/h 53% 0 mm WeatherDisplay:10.37 W/m2 SCT
17:15 31.7 °C 20.9 °C 1015.1 hPa Calm     53% 0 mm WeatherDisplay:10.37 W/m2 SCT
17:20 32 °C 20.6 °C 1015.1 hPa Calm   1.6 km/h 51% 0 mm WeatherDisplay:10.37 W/m2 FEW
17:25 32.2 °C 20.5 °C 1015.1 hPa Calm   1.6 km/h 50% 0 mm WeatherDisplay:10.37 W/m2 FEW
17:30 32.4 °C 20 °C 1015.1 hPa Calm   1.6 km/h 48% 0 mm WeatherDisplay:10.37 W/m2 FEW
17:40 32.6 °C 20.5 °C 1015.1 hPa Calm     49% 0 mm WeatherDisplay:10.37 W/m2 FEW
17:45 32.5 °C 20.4 °C 1015.1 hPa Calm   4.8 km/h 49% 0 mm WeatherDisplay:10.37 W/m2 FEW
17:50 32.2 °C 20.2 °C 1015.1 hPa NNE 1.6 km/h 3.2 km/h 49% 0 mm WeatherDisplay:10.37 W/m2 FEW
17:55 31.9 °C 20.6 °C 1015.1 hPa Calm   3.2 km/h 51% 0 mm WeatherDisplay:10.37 W/m2 FEW
18:00 31.7 °C 20.3 °C 1015.1 hPa Calm   1.6 km/h 51% 0 mm WeatherDisplay:10.37 W/m2 FEW
18:05 31.6 °C 21.1 °C 1015.1 hPa Calm   1.6 km/h 54% 0 mm WeatherDisplay:10.37 W/m2 FEW
18:10 31.3 °C 20.6 °C 1014.8 hPa Calm     53% 0 mm WeatherDisplay:10.37 W/m2 FEW
18:15 31.2 °C 21.1 °C 1014.8 hPa Calm     55% 0 mm WeatherDisplay:10.37 W/m2 FEW
18:20 31 °C 21.4 °C 1014.8 hPa Calm   3.2 km/h 57% 0 mm WeatherDisplay:10.37 W/m2 FEW
18:25 30.8 °C 20.7 °C 1014.8 hPa Calm   1.6 km/h 55% 0 mm WeatherDisplay:10.37 W/m2 FEW
18:30 30.8 °C 20.4 °C 1014.8 hPa Calm   1.6 km/h 54% 0 mm WeatherDisplay:10.37 W/m2 FEW
18:35 30.7 °C 20.9 °C 1014.8 hPa Calm     56% 0 mm WeatherDisplay:10.37 W/m2 FEW
18:40 30.6 °C 20.8 °C 1014.8 hPa Calm     56% 0 mm WeatherDisplay:10.37 W/m2 FEW
18:45 30.3 °C 20.8 °C 1014.8 hPa Calm     57% 0 mm WeatherDisplay:10.37 W/m2 FEW
18:50 30.2 °C 20.9 °C 1014.8 hPa Calm   1.6 km/h 58% 0 mm WeatherDisplay:10.37 W/m2 FEW
18:55 30.1 °C 20.9 °C 1014.8 hPa Calm   1.6 km/h 58% 0 mm WeatherDisplay:10.37 W/m2 FEW
19:00 30.1 °C 20.9 °C 1014.8 hPa Calm   1.6 km/h 58% 0 mm WeatherDisplay:10.37 W/m2 FEW
19:05 30 °C 21.1 °C 1014.8 hPa Calm     59% 0 mm WeatherDisplay:10.37 W/m2 FEW
19:10 29.8 °C 20.9 °C 1014.8 hPa Calm   1.6 km/h 59% 0 mm WeatherDisplay:10.37 W/m2 FEW
19:15 29.7 °C 21.1 °C 1014.4 hPa Calm   1.6 km/h 60% 0 mm WeatherDisplay:10.37 W/m2 FEW
19:20 29.7 °C 21.1 °C 1014.4 hPa Calm     60% 0 mm WeatherDisplay:10.37 W/m2 FEW
19:25 29.6 °C 20.9 °C 1014.4 hPa Calm     60% 0 mm WeatherDisplay:10.37 W/m2 FEW
19:30 29.4 °C 21.2 °C 1014.8 hPa Calm     61% 0 mm WeatherDisplay:10.37 W/m2 FEW
19:35 29.3 °C 21.1 °C 1014.8 hPa Calm     61% 0 mm WeatherDisplay:10.37 W/m2 FEW
19:40 29.2 °C 20.9 °C 1014.8 hPa Calm     61% 0 mm WeatherDisplay:10.37 W/m2 FEW
19:45 29.1 °C 21.1 °C 1014.8 hPa Calm     62% 0 mm WeatherDisplay:10.37 W/m2 FEW
19:50 29 °C 21.2 °C 1014.8 hPa Calm   3.2 km/h 63% 0 mm WeatherDisplay:10.37 W/m2 FEW
19:55 28.9 °C 21.1 °C 1014.8 hPa Calm     63% 0 mm WeatherDisplay:10.37 W/m2 FEW
20:00 28.8 °C 21.3 °C 1014.8 hPa Calm     64% 0 mm WeatherDisplay:10.37 W/m2 FEW
20:05 28.7 °C 21.2 °C 1014.8 hPa Calm     64% 0 mm WeatherDisplay:10.37 W/m2 FEW
20:10 28.5 °C 21.3 °C 1014.8 hPa Calm     65% 0 mm WeatherDisplay:10.37 W/m2 FEW
20:15 28.4 °C 21.2 °C 1014.8 hPa Calm     65% 0 mm WeatherDisplay:10.37 W/m2 FEW
20:20 28.3 °C 21.3 °C 1014.8 hPa Calm     66% 0 mm WeatherDisplay:10.37 W/m2 FEW
20:25 28.2 °C 21.3 °C 1014.8 hPa Calm     66% 0 mm WeatherDisplay:10.37 W/m2 FEW
20:30 28.1 °C 21.7 °C 1014.8 hPa Calm     68% 0 mm WeatherDisplay:10.37 W/m2 FEW
20:40 27.8 °C 21.4 °C 1014.8 hPa Calm     68% 0 mm WeatherDisplay:10.37 W/m2 FEW
20:45 27.7 °C 21.5 °C 1014.8 hPa Calm     69% 0 mm WeatherDisplay:10.37 W/m2 FEW
20:50 27.6 °C 21.4 °C 1014.8 hPa Calm     69% 0 mm WeatherDisplay:10.37 W/m2 FEW
20:55 27.5 °C 21.6 °C 1014.8 hPa Calm     70% 0 mm WeatherDisplay:10.37 W/m2 FEW
21:00 27.4 °C 21.5 °C 1014.8 hPa Calm     70% 0 mm WeatherDisplay:10.37 W/m2 FEW
21:10 27.2 °C 21.5 °C 1014.8 hPa Calm     71% 0 mm WeatherDisplay:10.37 W/m2 FEW
21:15 27.1 °C 21.6 °C 1014.8 hPa Calm     72% 0 mm WeatherDisplay:10.37 W/m2 FEW
21:20 27 °C 21.7 °C 1014.8 hPa Calm     73% 0 mm WeatherDisplay:10.37 W/m2 FEW
21:25 26.9 °C 21.6 °C 1014.8 hPa Calm     73% 0 mm WeatherDisplay:10.37 W/m2 FEW
21:30 26.8 °C 21.8 °C 1014.8 hPa Calm     74% 0 mm WeatherDisplay:10.37 W/m2 FEW
21:40 26.6 °C 21.8 °C 1014.8 hPa Calm     75% 0 mm WeatherDisplay:10.37 W/m2 FEW
21:45 26.5 °C 21.7 °C 1014.8 hPa Calm     75% 0 mm WeatherDisplay:10.37 W/m2 FEW
21:50 26.4 °C 21.6 °C 1014.8 hPa Calm     75% 0 mm WeatherDisplay:10.37 W/m2 FEW
21:55 26.3 °C 21.5 °C 1014.8 hPa Calm     75% 0 mm WeatherDisplay:10.37 W/m2 FEW
22:00 26.2 °C 21.7 °C 1014.8 hPa Calm     76% 0 mm WeatherDisplay:10.37 W/m2 FEW
22:10 26.1 °C 21.7 °C 1015.1 hPa Calm     77% 0 mm WeatherDisplay:10.37 W/m2 FEW
22:15 26 °C 21.7 °C 1015.1 hPa Calm     77% 0 mm WeatherDisplay:10.37 W/m2 FEW
22:20 25.9 °C 21.8 °C 1015.1 hPa Calm     78% 0 mm WeatherDisplay:10.37 W/m2 FEW
22:25 25.9 °C 21.8 °C 1015.1 hPa Calm     78% 0 mm WeatherDisplay:10.37 W/m2 FEW
22:30 25.8 °C 21.7 °C 1015.1 hPa Calm     78% 0 mm WeatherDisplay:10.37 W/m2 FEW
22:40 25.7 °C 21.8 °C 1015.5 hPa Calm     79% 0 mm WeatherDisplay:10.37 W/m2 FEW
22:45 25.7 °C 21.8 °C 1015.5 hPa Calm     79% 0 mm WeatherDisplay:10.37 W/m2 FEW
22:50 25.7 °C 21.7 °C 1015.5 hPa Calm     79% 0 mm WeatherDisplay:10.37 W/m2 FEW
22:55 25.6 °C 21.9 °C 1015.5 hPa Calm     80% 0 mm WeatherDisplay:10.37 W/m2 FEW
23:00 25.6 °C 21.8 °C 1015.5 hPa Calm     80% 0 mm WeatherDisplay:10.37 W/m2 FEW
23:10 25.6 °C 21.8 °C 1015.5 hPa Calm     80% 0 mm WeatherDisplay:10.37 W/m2 FEW
23:15 25.6 °C 21.8 °C 1015.5 hPa Calm     80% 0 mm WeatherDisplay:10.37 W/m2 FEW
23:20 25.5 °C 22 °C 1015.5 hPa Calm     81% 0 mm WeatherDisplay:10.37 W/m2 CLR
23:25 25.4 °C 21.9 °C 1015.8 hPa Calm     81% 0 mm WeatherDisplay:10.37 W/m2 CLR
23:30 25.4 °C 21.9 °C 1015.5 hPa Calm     81% 0 mm WeatherDisplay:10.37 W/m2 CLR
23:40 25.3 °C 21.8 °C 1015.5 hPa Calm     81% 0 mm WeatherDisplay:10.37 W/m2 CLR
23:45 25.2 °C 21.9 °C 1015.5 hPa Calm     82% 0 mm WeatherDisplay:10.37 W/m2 CLR
23:50 25.2 °C 21.9 °C 1015.8 hPa Calm     82% 0 mm WeatherDisplay:10.37 W/m2 CLR
23:55 25.1 °C 21.8 °C 1015.8 hPa Calm     82% 0 mm WeatherDisplay:10.37 W/m2 CLR
Piedmont Bend
Compliments of Weather Underground - 4 mb